Regional Weather Roundup
Issued by NWS

Home | Current Version | Previous Version | Graphics & Text | Print | Product List | Glossary On
Versions: 1 2 3 4 5 6 7 8 9 10 11 12 13 14 15 16 17 18 19 20 21 22 23 24 25 26 27 28 29 30 31 32 33 34 35 36 37 38 39 40 41 42 43 44 45 46 47 48 49 50
000
ASUS45 KCYS 241610
RWRWY

WYOMING REGIONAL WEATHER ROUNDUP
NATIONAL WEATHER SERVICE CHEYENNE WY
1000 AM MDT MON JUL 24 2017

NOTE:  "FAIR" INDICATES FEW OR NO CLOUDS BELOW 12,000 FEET
WITH NO SIGNIFICANT WEATHER AND/OR OBSTRUCTIONS TO VISIBILITY.

WYZ001-241700-
YELLOWSTONE NATIONAL PARK

CITY           SKY/WX    TMP DP  RH WIND       PRES   REMARKS
LK YELLOWSTONE   N/A     62  44  51 VRB5      30.28S
W YELLOWSTONE  NOT AVBL

$$
WYZ002>013-054>058-071-098>099-241700-
NORTHERN WYOMING

CITY           SKY/WX    TMP DP  RH WIND       PRES   REMARKS
JACKSON        SUNNY     64  43  45 CALM      30.19F
CODY           FAIR      82  43  25 NE8       30.04R
GREYBULL       FAIR      78  32  18 VRB5      29.95F
WORLAND        FAIR      81  44  27 N6        29.96F
SHERIDAN       FAIR      85  52  32 VRB5      29.93R
BUFFALO        FAIR      89  32  13 N5        30.00S
GILLETTE       FAIR      85  49  28 W16       29.93S
HULETT         FAIR      82  52  34 SW13      29.95S
NEWCASTLE      FAIR      82  46  28 SE9       29.96S

$$
WYZ014>020-022>026-101>103-241700-
CENTRAL WYOMING

CITY           SKY/WX    TMP DP  RH WIND       PRES   REMARKS
BIG PINEY      FAIR      70  46  42 CALM      30.25F
PINEDALE       FAIR      68  39  34 E7        30.26F
DUBOIS         FAIR      77  28  16 NW14G21   30.20F
LANDER         FAIR      80  37  21 N5        30.08F
RIVERTON       FAIR      79  38  22 CALM      30.09F
CASPER         FAIR      85  34  16 SW18G24   30.07F
DOUGLAS        FAIR      87  43  21 NW9       30.02F

$$
WYZ021-027>030-104>119-241700-
SOUTHERN WYOMING

CITY           SKY/WX    TMP DP  RH WIND       PRES   REMARKS
EVANSTON       PTSUNNY   67  45  45 SW8       30.26R
KEMMERER         N/A     73  37  27 SW5       30.26F
FORT BRIDGER   PTSUNNY   70  40  32 CALM      30.28S
ROCK SPRINGS   CLOUDY    71  39  31 CALM      30.23F
RAWLINS          N/A     76  34  21 SW3       30.23F
SARATOGA       FAIR      77  36  22 S8        30.25F
LARAMIE        FAIR      75  38  26 CALM      30.24F
CHEYENNE       FAIR      85  41  21 VRB5      30.14F
TORRINGTON     FAIR      83  49  30 W6        29.97F
PINE BLUFFS    FAIR      81  52  36 SW8       30.08S

$$



USA.gov is the U.S. government's official web portal to all federal, state and local government web resources and services.